Regional Weather Roundup
Issued by NWS

Home | Current Version | Previous Version | Graphics & Text | Print | Product List | Glossary On
Versions: 1 2 3 4 5 6 7 8 9 10 11 12 13 14 15 16 17 18 19 20 21 22 23 24 25 26 27 28 29 30 31 32 33 34 35 36 37 38 39 40 41 42 43 44 45 46 47 48 49 50
000
ASUS43 KLOT 251810
RWRIL

ILLINOIS REGIONAL WEATHER ROUNDUP
NATIONAL WEATHER SERVICE CHICAGO/ROMEOVILLE IL
1200 PM CST THU DEC 25 2014

NOTE: "FAIR" INDICATES FEW OR NO CLOUDS BELOW 12,000 FEET WITH NO
SIGNIFICANT WEATHER AND/OR OBSTRUCTIONS TO VISIBILITY.

* THESE STATIONS ARE NOT UNDER NWS QUALITY CONTROL. THEY ALSO MAY NOT
  REPORT WEATHER SUCH AS PRECIPITATION OR FOG.

ILZ001-002-007-009-015-016-024-251900-
NORTHWEST ILLINOIS

CITY           SKY/WX    TMP DP  RH WIND       PRES   REMARKS
MOLINE         MOSUNNY   44  32  62 S10       29.89F
6HR MIN TEMP:  33; 6HR MAX TEMP:  44;

STERLING*      MOSUNNY   43  34  70 SW6       29.93S
SAVANNA*       MOSUNNY   42  32  67 S13       29.89F
$$

ILZ003-004-008-010-011-017-018-251900-
NORTH CENTRAL ILLINOIS

CITY           SKY/WX    TMP DP  RH WIND       PRES   REMARKS
ROCKFORD       PTSUNNY   40  31  70 SW16      29.94S
6HR MIN TEMP:  33; 6HR MAX TEMP:  40;

FREEPORT*      MOSUNNY   38  32  78 S15       29.92S WCI  30
ROCHELLE*      PTSUNNY   38  34  83 S17       29.94S WCI  29
DE KALB*       CLOUDY    37  32  79 SW17      29.95R WCI  28
PERU*          MOSUNNY   43  32  66 S14       29.95F
$$

ILZ005-006-012>014-019>023-251900-
NORTHEAST ILLINOIS

CITY           SKY/WX    TMP DP  RH WIND       PRES   REMARKS
CHICAGO-OHARE  PTSUNNY   38  29  70 SW13G21   29.94F WCI  30
6HR MIN TEMP:  33; 6HR MAX TEMP:  38;

CHICAGO-MIDWAY PTSUNNY   40  30  67 SW16G22   29.96F
6HR MIN TEMP:  35; 6HR MAX TEMP:  40;

AURORA         CLOUDY    40  30  67 S16       29.96S
6HR MIN TEMP:  34; 6HR MAX TEMP:  40;

LANSING*       CLOUDY    38  31  77 SW15      29.98F WCI  29
JOLIET*        CLOUDY    38  30  74 S13       29.97F WCI  30
WAUKEGAN       SUNNY     38  28  67 SW18G24   29.91S WCI  28
6HR MIN TEMP:  33; 6HR MAX TEMP:  38;

DUPAGE AIRPORT CLOUDY    39  30  70 SW16      29.95S WCI  30
6HR MIN TEMP:  33; 6HR MAX TEMP:  39;

KANKAKEE*      CLOUDY    38  32  78 SW16G22   30.01S WCI  30
WHEELING       MOSUNNY   38  28  67 SW14G23   29.95F WCI  30
6HR MIN TEMP:  34; 6HR MAX TEMP:  38;

MORRIS*        CLOUDY    40  33  77 S17       29.97R
ROMEOVILLE*    CLOUDY    38  31  73 SW14G21   29.97S WCI  30
NORTHERLY ISL    N/A     37  28  70 SW9         N/A  WCI  30
$$

LMZ740>746-251900-
SOUTHERN LAKE MICHIGAN

STATION/POSITION SKY/WX   TEMP    WIND        PRES    VSBY  WAVE
                          AIR SEA DIR/SP/G                  HT/PER
                          (F)     (DEG/KT/KT) (MB)    (MI)  (FT/S)
WAUKEGAN HARBOR            37                   N/A
HARRISON CRIB              36     210/ 21/ 26   N/A
BURNHAM HARBOR             38     250/ 10/ 15   N/A
CALUMET HARBOR             37     190/ 12/ 19 1013.4F
MICHIGAN CITY              36     200/ 16/ 19   N/A
$$

ILZ025>027-034>036-040-047-049-050-058-095>099-251900-
WEST-CENTRAL ILLINOIS

CITY           SKY/WX    TMP DP  RH WIND       PRES   REMARKS
QUINCY         SUNNY     45  32  60 S14       29.91F
GALESBURG*     SUNNY     43  34  70 S15       29.91F
MACOMB*        SUNNY     44  35  71 S13G18    29.94F
JACKSONVILLE*  SUNNY     47  35  64 S13G18    29.96F
PITTSFIELD*    SUNNY     45  35  66 S14       29.94F
$$

ILZ028>032-037-038-041>044-048-051>054-059>061-251900-
CENTRAL ILLINOIS

CITY           SKY/WX    TMP DP  RH WIND       PRES   REMARKS
PONTIAC        PTSUNNY   42  34  73 S15G24    29.98F
BLOOMINGTON    PTSUNNY   42  35  76 S20       29.98F
DECATUR        SUNNY     43  35  73 S17G25    30.02F
PEORIA         SUNNY     45  33  63 S17       29.95F
6HR MIN TEMP:  36; 6HR MAX TEMP:  45;

LACON*         SUNNY     43  31  64 SW13      29.95F
LINCOLN*       SUNNY     44  35  69 S14G20    29.99F
SPRINGFIELD    SUNNY     46  35  65 S14       29.99F
6HR MIN TEMP:  34; 6HR MAX TEMP:  46;

TAYLORVILLE    SUNNY     43  36  75 S17       30.01F
$$

ILZ033-039-045-046-055>057-062-063-251900-
EAST-CENTRAL ILLINOIS

CITY           SKY/WX    TMP DP  RH WIND       PRES   REMARKS
CHAMPAIGN      PTSUNNY   41  34  76 S15       30.02F
DANVILLE*      CLOUDY    39  33  77 SW15G22   30.00F WCI  31
RANTOUL*       CLOUDY    42  36  78 SW14      30.01F
MATTOON        MOSUNNY   41  33  73 S15G24    30.04F
PARIS*         PTSUNNY   42  37  81 S14       30.06F
$$

ILZ079-100>102-251900-
SOUTHWEST ILLINOIS

CITY           SKY/WX    TMP DP  RH WIND       PRES   REMARKS
ALTON          SUNNY     46  34  61 S12       30.01F
BELLEVILLE     SUNNY     47  37  69 S13       30.03F
CAHOKIA*       SUNNY     48  36  63 S12G18    30.02F
SPARTA*        SUNNY     44  34  67 S15G21    30.07F
$$

ILZ064>066-069>071-074>076-080>082-084>086-088>090-092>094-251900-
SOUTH-CENTRAL ILLINOIS

CITY           SKY/WX    TMP DP  RH WIND       PRES   REMARKS
CARBONDALE     SUNNY     46  34  62 SW21      30.10F
6HR MIN TEMP:  31; 6HR MAX TEMP:  46;

CAIRO*         SUNNY     47  36  65 SW13      30.15S
EFFINGHAM*     MOSUNNY   45  32  60 S10G16    30.07F
MARION         MOSUNNY   46  36  66 S15G21    30.11F
MT. VERNON     SUNNY     46  36  66 S13       30.08F
CENTRALIA*     SUNNY     45  34  66 S13       30.05F
SALEM*         SUNNY     46  36  67 S10G16    30.06F
METROPOLIS*    MOSUNNY   48  37  65 S12       30.13F
$$

ILZ067-068-072-073-078-083-087-091-251900-
SOUTHEAST ILLINOIS

CITY           SKY/WX    TMP DP  RH WIND       PRES   REMARKS
LAWRENCEVILLE  PTSUNNY   45  34  65 S16       30.09F
FLORA*         SUNNY     45  35  70 SW12      30.08F
FAIRFIELD*     SUNNY     45  36  69 S12       30.08F
HARRISBURG*    SUNNY     46  35  64 SW15G21   30.12F
ROBINSON*      CLOUDY    43  35  73 S10G16    30.09F
CARMI*         SUNNY     48  38  66 S15       30.10F
$$

ABBREVIATIONS USED IN REMARKS
   TC - TEMPERATURE IN CELSIUS
  WCI - WIND CHILL INDEX
   HX - HEAT INDEX
  VSB - VISIBILITY
$$



USA.gov is the U.S. government's official web portal to all federal, state and local government web resources and services.